TimeCDT,TemperatureF,Dew PointF,Humidity,Sea Level PressureIn,VisibilityMPH,Wind Direction,Wind SpeedMPH,Gust SpeedMPH,PrecipitationIn,Events,Conditions,WindDirDegrees,DateUTC
12:53 AM,66.9,64.9,93,29.98,10.0,SSE,8.1,-,N/A,,Mostly Cloudy,160,2013-05-16 05:53:00
1:53 AM,66.0,64.9,96,29.98,10.0,SE,6.9,-,N/A,,Mostly Cloudy,140,2013-05-16 06:53:00
2:53 AM,66.0,64.9,96,29.98,10.0,SE,5.8,-,N/A,,Overcast,140,2013-05-16 07:53:00
3:53 AM,66.0,64.9,96,29.95,9.0,SSE,6.9,-,N/A,,Scattered Clouds,150,2013-05-16 08:53:00
4:53 AM,64.9,64.0,97,29.95,7.0,SE,6.9,-,N/A,,Partly Cloudy,140,2013-05-16 09:53:00
5:53 AM,66.0,64.9,96,29.97,8.0,SSE,3.5,-,N/A,,Overcast,160,2013-05-16 10:53:00
6:40 AM,66.2,64.4,94,29.98,5.0,South,3.5,-,N/A,,Overcast,170,2013-05-16 11:40:00
6:53 AM,66.0,64.9,96,29.98,5.0,SSE,5.8,-,N/A,,Mostly Cloudy,150,2013-05-16 11:53:00
7:07 AM,66.2,64.4,94,29.95,6.0,SE,10.4,-,N/A,,Overcast,140,2013-05-16 12:07:00
7:43 AM,66.2,66.2,100,29.94,8.0,SSE,8.1,-,N/A,,Mostly Cloudy,160,2013-05-16 12:43:00
7:53 AM,68.0,66.0,93,29.95,9.0,SSE,10.4,-,N/A,,Mostly Cloudy,160,2013-05-16 12:53:00
8:12 AM,69.8,66.2,88,29.93,10.0,SSE,10.4,-,N/A,,Partly Cloudy,160,2013-05-16 13:12:00
8:53 AM,73.0,66.0,79,29.93,10.0,South,8.1,-,N/A,,Partly Cloudy,180,2013-05-16 13:53:00
9:53 AM,75.0,64.9,71,29.90,10.0,SSE,10.4,20.7,N/A,,Clear,160,2013-05-16 14:53:00
10:53 AM,75.0,64.9,71,29.92,10.0,South,4.6,-,N/A,,Mostly Cloudy,170,2013-05-16 15:53:00
11:53 AM,78.1,66.9,68,29.94,10.0,South,9.2,-,N/A,,Partly Cloudy,180,2013-05-16 16:53:00
12:24 PM,77.0,66.2,69,29.92,10.0,South,9.2,-,N/A,,Mostly Cloudy,180,2013-05-16 17:24:00
12:35 PM,75.2,66.2,73,29.93,10.0,South,10.4,-,N/A,,Mostly Cloudy,180,2013-05-16 17:35:00
12:53 PM,77.0,66.9,71,29.94,10.0,South,8.1,-,0.00,,Partly Cloudy,170,2013-05-16 17:53:00
1:53 PM,78.1,66.9,68,29.91,10.0,SSE,11.5,21.9,N/A,,Mostly Cloudy,160,2013-05-16 18:53:00
2:12 PM,80.6,66.2,61,29.90,10.0,South,11.5,20.7,N/A,,Mostly Cloudy,170,2013-05-16 19:12:00
2:53 PM,79.0,66.9,66,29.89,10.0,SSE,12.7,-,N/A,,Mostly Cloudy,150,2013-05-16 19:53:00
3:53 PM,82.0,68.0,62,29.87,10.0,SSE,11.5,21.9,N/A,,Mostly Cloudy,160,2013-05-16 20:53:00
4:53 PM,82.0,66.9,60,29.86,10.0,South,9.2,-,N/A,,Scattered Clouds,170,2013-05-16 21:53:00
5:53 PM,82.0,64.9,56,29.86,10.0,SSW,15.0,-,N/A,,Partly Cloudy,200,2013-05-16 22:53:00
6:53 PM,79.0,64.9,62,29.85,10.0,South,12.7,20.7,N/A,,Clear,180,2013-05-16 23:53:00
7:53 PM,77.0,64.9,66,29.86,10.0,SSW,10.4,-,N/A,,Mostly Cloudy,200,2013-05-17 00:53:00
8:53 PM,73.9,63.0,68,29.88,10.0,South,9.2,-,N/A,,Scattered Clouds,190,2013-05-17 01:53:00
9:53 PM,72.0,63.0,73,29.92,10.0,South,4.6,-,N/A,,Clear,190,2013-05-17 02:53:00
10:53 PM,71.1,63.0,75,29.93,10.0,SSE,4.6,-,N/A,,Clear,160,2013-05-17 03:53:00
11:53 PM,68.0,64.0,87,29.93,10.0,SSE,5.8,-,N/A,,Mostly Cloudy,150,2013-05-17 04:53:00